AD7CQ Weather Reports


Display with metric or nautical units.
time (UTC)temp
F
wind
direction
speed
MPH
gust
MPH
rain 1hr
in
rain 24hr
in
rain mn
in
humidity
%
barometer
mb
20260506221507 85 126 2.0 11.0 0.00 0.00 0.00 29 1007.9
20260506220017 85 175 2.0 10.0 0.00 0.00 0.00 28 1008.0
20260506214504 85 111 1.0 9.0 0.00 0.00 0.00 31 1008.2
20260506213002 84 163 2.0 12.0 0.00 0.00 0.00 31 1008.4
20260506211559 84 147 1.0 13.0 0.00 0.00 0.00 32 1008.4
20260506210057 84 214 1.0 9.0 0.00 0.00 0.00 31 1008.6
20260506204555 83 191 2.0 8.0 0.00 0.00 0.00 32 1008.8
20260506203059 83 171 3.0 11.0 0.00 0.00 0.00 32 1008.7
20260506201552 83 359 2.0 10.0 0.00 0.00 0.00 33 1009.0
20260506200047 82 181 2.0 10.0 0.00 0.00 0.00 34 1009.1
20260506194546 82 170 2.0 10.0 0.00 0.00 0.00 35 1009.3
20260506193049 80 196 1.0 6.0 0.00 0.00 0.00 37 1009.3
20260506191539 80 207 2.0 9.0 0.00 0.00 0.00 37 1009.4
20260506190038 79 129 1.0 7.0 0.00 0.00 0.00 38 1009.4
20260506184537 79 195 2.0 7.0 0.00 0.00 0.00 38 1009.6
20260506183038 79 189 1.0 9.0 0.00 0.00 0.00 40 1009.7
20260506181531 78 211 1.0 7.0 0.00 0.00 0.00 40 1009.9
20260506180026 77 221 2.0 8.0 0.00 0.00 0.00 41 1009.9
20260506174522 75 224 1.0 8.0 0.00 0.00 0.00 43 1009.9
20260506173022 75 191 2.0 9.0 0.00 0.00 0.00 45 1010.1
20260506171520 74 197 1.0 9.0 0.00 0.00 0.00 46 1010.2
20260506170011 73 206 1.0 10.0 0.00 0.00 0.00 47 1010.5
20260506164512 73 147 1.0 4.0 0.00 0.00 0.00 48 1010.5
20260506163003 72 208 0.0 4.0 0.00 0.00 0.00 50 1010.6
20260506161600 72 187 1.0 5.0 0.00 0.00 0.00 50 1010.6
20260506160108 71 143 0.0 4.0 0.00 0.00 0.00 53 1010.5
20260506154550 70 115 2.0 8.0 0.00 0.00 0.00 55 1010.5
20260506153045 68 137 1.0 5.0 0.00 0.00 0.00 57 1010.3
20260506151544 68 129 1.0 7.0 0.00 0.00 0.00 58 1010.4
20260506150037 67 100 1.0 4.0 0.00 0.00 0.00 59 1010.4
20260506144532 66 80 0.0 0.0 0.00 0.00 0.00 60 1010.3
20260506143033 65 81 0.0 0.0 0.00 0.00 0.00 62 1010.3
20260506141523 64 80 0.0 0.0 0.00 0.00 0.00 64 1010.2
20260506140019 63 81 0.0 3.0 0.00 0.00 0.00 67 1010.1
20260506134520 61 80 0.0 0.0 0.00 0.00 0.00 73 1010.0
20260506133011 58 81 0.0 0.0 0.00 0.00 0.00 79 1009.8
20260506131513 56 81 0.0 0.0 0.00 0.00 0.00 80 1009.6
20260506130004 56 81 0.0 0.0 0.00 0.00 0.00 80 1009.4
20260506124500 56 81 0.0 0.0 0.00 0.00 0.00 79 1009.3
20260506123058 57 81 0.0 0.0 0.00 0.00 0.00 77 1009.3
20260506121556 58 80 0.0 0.0 0.00 0.00 0.00 75 1009.0
20260506120054 59 80 0.0 0.0 0.00 0.00 0.00 74 1008.9
20260506114550 59 80 0.0 0.0 0.00 0.00 0.00 73 1008.7
20260506113048 59 80 0.0 1.0 0.00 0.00 0.00 74 1008.6
20260506111546 58 81 1.0 3.0 0.00 0.00 0.00 77 1008.5
20260506110044 57 81 0.0 0.0 0.00 0.00 0.00 76 1008.5
20260506104548 58 81 0.0 0.0 0.00 0.00 0.00 74 1008.3
20260506103040 58 81 0.0 0.0 0.00 0.00 0.00 73 1008.2
20260506101537 59 80 0.0 0.0 0.00 0.00 0.00 72 1008.3
20260506100037 60 80 0.0 1.0 0.00 0.00 0.00 71 1008.1
20260506094545 60 80 0.0 0.0 0.00 0.00 0.00 70 1008.1
20260506093035 60 80 0.0 0.0 0.00 0.00 0.00 69 1008.1
20260506091531 61 80 0.0 0.0 0.00 0.00 0.00 67 1008.0
20260506090025 62 81 0.0 0.0 0.00 0.00 0.00 66 1008.0
20260506084523 63 80 0.0 0.0 0.00 0.00 0.00 64 1007.9
20260506083020 63 80 0.0 2.0 0.00 0.00 0.00 63 1007.7
20260506081518 64 80 0.0 2.0 0.00 0.00 0.00 64 1007.6
20260506073012 65 81 0.0 0.0 0.00 0.00 0.00 64 1007.6
20260506071513 65 80 0.0 0.0 0.00 0.00 0.00 65 1007.6
20260506061509 68 80 0.0 0.0 0.00 0.00 0.00 54 1007.2
20260506044501 73 80 0.0 0.0 0.00 0.00 0.00 44 1006.8
20260506043058 74 80 0.0 0.0 0.00 0.00 0.00 44 1006.8
20260506041556 75 80 0.0 0.0 0.00 0.00 0.00 42 1006.7
20260506040054 76 80 1.0 4.0 0.00 0.00 0.00 41 1006.5
20260506034556 77 79 0.0 3.0 0.00 0.00 0.00 40 1006.4
20260506033055 78 79 0.0 0.0 0.00 0.00 0.00 40 1006.2
20260506031558 80 80 0.0 0.0 0.00 0.00 0.00 37 1006.1
20260506030052 81 79 0.0 0.0 0.00 0.00 0.00 36 1006.0
20260506024559 82 80 0.0 4.0 0.00 0.00 0.00 35 1006.0
20260506023058 83 52 0.0 3.0 0.00 0.00 0.00 33 1006.0
20260506021551 84 42 0.0 0.0 0.00 0.00 0.00 31 1006.0
20260506020051 86 227 0.0 0.0 0.00 0.00 0.00 25 1005.9
20260506014551 85 227 0.0 0.0 0.00 0.00 0.00 25 1005.9
20260506013051 85 226 0.0 2.0 0.00 0.00 0.00 25 1005.9
20260506011549 86 359 1.0 5.0 0.00 0.00 0.00 25 1005.9
20260506010049 87 21 1.0 4.0 0.00 0.00 0.00 25 1006.0
20260506004549 87 11 1.0 4.0 0.00 0.00 0.00 25 1006.0
20260506003049 86 42 0.0 5.0 0.00 0.00 0.00 26 1005.9
20260506001550 86 4 0.0 5.0 0.00 0.00 0.00 26 1006.0
20260506000047 86 8 0.0 3.0 0.00 0.00 0.00 26 1006.1
20260505234550 87 359 0.0 3.0 0.00 0.00 0.00 27 1006.3
20260505233043 86 289 0.0 2.0 0.00 0.00 0.00 29 1006.4
20260505231552 85 56 0.0 5.0 0.00 0.00 0.00 27 1006.6
20260505230052 86 359 0.0 0.0 0.00 0.00 0.00 30 1006.7
20260505224539 85 20 0.0 0.0 0.00 0.00 0.00 30 1006.8
20260505223038 85 359 0.0 5.0 0.00 0.00 0.00 29 1007.0